Weather Roundup
Issued by NWS Chicago, IL

Home | Current Version | Previous Version | Graphics & Text | Print | Product List | Glossary On
Versions: 1 2 3 4 5 6 7 8 9 10 11 12 13 14 15 16 17 18 19 20 21 22 23 24 25 26 27 28 29 30 31 32 33 34 35 36 37 38 39 40 41 42 43 44 45 46 47 48 49 50
000
NZUS59 KLOT 030521
HRRLOT

CHICAGO AREA WEATHER ROUNDUP
NATIONAL WEATHER SERVICE CHICAGO/ROMEOVILLE IL
1200 AM CDT MON AUG 03 2015

NOTE: "FAIR" INDICATES FEW OR NO CLOUDS BELOW 12,000 FEET WITH NO
SIGNIFICANT WEATHER AND/OR OBSTRUCTIONS TO VISIBILITY.

* THESE STATIONS ARE NOT UNDER NWS QUALITY CONTROL. THEY ALSO MAY NOT
  REPORT WEATHER SUCH AS PRECIPITATION OR FOG.

ILZ005-006-012>014-019>023-030600-
NORTHEAST ILLINOIS

CITY           SKY/WX    TMP DP  RH WIND       PRES   REMARKS
OHARE          CLOUDY    68  67  96 CALM      29.74R
MIDWAY         TSTM      70  64  81 W6        29.72F
AURORA         MOCLDY    70  64  81 NE5       29.75R
LANSING*       CLOUDY    67  63  87 N14       29.76R
JOLIET*        MOCLDY    83  74  75 NW5G16    29.72R THUNDER HX  89
WAUKEGAN       CLOUDY    67  65  93 VRB3      29.72S
DUPAGE AIRPORT MOCLDY    67  64  90 E6        29.75R
WHEELING       NOT AVBL
KANKAKEE*      CLEAR     78  70  78 SW12G18   29.73S
MORRIS*        MOCLDY    79  73  81 W12       29.71R HX  82
LEWIS AIRPORT* CLOUDY    69  64  83 N30G43    29.76R
NORTHERLY IS     N/A     65  63  93 W14         N/A
$$

WIZ051-052-058>065-066-070>072-030600-
SOUTHEAST WISCONSIN

CITY           SKY/WX    TMP DP  RH WIND       PRES   REMARKS
MILWAUKEE      PTCLDY    69  59  70 NW6       29.70R
KENOSHA*       MOCLDY    67  65  93 CALM      29.73R
RACINE*        MOCLDY    67  63  87 CALM      29.72R
BURLINGTON     PTCLDY    62  58  86 N3        29.72F
WAUKESHA       PTCLDY    64  54  68 CALM      29.73S
WEST BEND      CLOUDY    63  61  94 CALM      29.72R
$$

INZ001>003-010>013-019-020-030600-
NORTHWEST INDIANA

CITY           SKY/WX    TMP DP  RH WIND       PRES   REMARKS
GARY*          CLOUDY    66  64  93 W3        29.79R
MICHIGAN CITY* NOT AVBL
RENSSELAER*    NOT AVBL
VALPARAISO     HVY RAIN  64  62  93 N14G41    29.77R VSB 1
$$

LMZ740>746-030600-
SOUTHERN LAKE MICHIGAN

STATION/POSITION TIME  SKY/WX   TEMP WIND        PRES    VSBY
                                AIR  DIR/SP/G
                 (UTC)          (F)  (DEG/KT/KT) (MB)    (MI)
HARRISON CRIB    0500            66  270/ 16/ 18   N/A
BURNHAM HARBOR   0500            66  270/  9/ 35   N/A
CALUMET HARBOR   0400            73   10/ 14/ 25   N/A
BURNS HARBOR     0441            65  300/ 34     1007.8R
MICHIGAN CITY    0500            68  210/ 20/ 26   N/A
$$

ABBREVIATIONS USED IN REMARKS
   TC - TEMPERATURE IN CELSIUS
  WCI - WIND CHILL INDEX
   HX - HEAT INDEX
  VSB - VISIBILITY
$$



USA.gov is the U.S. government's official web portal to all federal, state and local government web resources and services.